La Paz, Mexico

4:12 AM MDT on April 26, 2017 (GMT -0600)
Gen Manuel Marquez De Leon

Weather History for MMLP - April, 2014

Change the Weather History Date:

Wednesday, April 30, 2014

  Actual Average Record
Temperature  
Mean Temperature 80 °F -  
Max Temperature 93 °F 92 °F 100 °F (2002)
Min Temperature 68 °F 60 °F 51 °F (1999)
Cooling Degree Days 15    
Growing Degree Days 30 (Base 50)    
Moisture  
Dew Point 43 °F    
Average Humidity 28    
Maximum Humidity 59    
Minimum Humidity 9    
Precipitation  
Precipitation 0.00 in - - ()
Sea Level Pressure  
Sea Level Pressure 29.86 in    
Wind  
Wind Speed 7 mph ()    
Max Wind Speed 18 mph    
Max Gust Speed -    
Visibility 9.7 miles    
Events      
Averages and records for this station are not official NWS values.
T = Trace of Precipitation, MM = Missing Value Source: Averaged Metar Reports

Daily Weather History Graph

Daily Weather History Graph

Search for Another Location

Airport or City:

Trip Planner

Search our weather history database for the weather conditions in past years. The results will help you decide how hot, cold, wet, or windy it might be!

Date:

Astronomy

Apr. 30, 2014 Rise Set
Actual Time 6:47 AM MDT 7:49 PM MDT
Civil Twilight 6:23 AM MDT 8:13 PM MDT
Nautical Twilight 5:55 AM MDT 8:41 PM MDT
Astronomical Twilight 5:26 AM MDT 9:10 PM MDT
Moon 7:55 AM MDT (4/30) 9:26 PM MDT (4/30)
Length of Visible Light 13h 49m
Length of Day
13h 02m
Waxing Crescent, 3% of the Moon is Illuminated
Apr 30
Waxing Crescent
May 6
First Quarter
May 14
Full
May 21
Last Quarter
May 28
New

Hourly Weather History & Observations

Time (MDT) Temp. Dew Point Humidity Pressure Visibility Wind Dir Wind Speed Gust Speed Precip Events Conditions
2:50 AM 72 °F 59 °F 54% 29.84 in 2 mi SSW 2.2 mph - -   Partly Cloudy
5:50 AM 69 °F 54 °F 50% 29.83 in 2 mi SSE 4.5 mph - -   Scattered Clouds
6:04 AM 62.6 °F 48.2 °F 59% 29.85 in 10.0 mi South 8.1 mph - N/A   Scattered Clouds
8:40 AM 69.8 °F 51.8 °F 53% 29.88 in 10.0 mi South 11.5 mph - N/A   Mostly Cloudy
8:50 AM 75 °F 53 °F 35% 29.87 in 16 mi South 8.9 mph - -   Partly Cloudy
9:47 AM 75.2 °F 48.2 °F 38% 29.89 in 10.0 mi South 10.4 mph - N/A   Mostly Cloudy
10:44 AM 82.4 °F 37.4 °F 20% 29.89 in 10.0 mi SSE 9.2 mph - N/A   Mostly Cloudy
11:40 AM 86.0 °F 26.6 °F 12% 29.89 in 10.0 mi North 4.6 mph - N/A   Mostly Cloudy
11:50 AM 88 °F 49 °F 16% 29.88 in 19 mi NW 6.7 mph - -   Mostly Cloudy
12:40 PM 87.8 °F 26.6 °F 11% 29.87 in 10.0 mi North 6.9 mph - N/A   Mostly Cloudy
1:46 PM 87.8 °F 28.4 °F 12% 29.86 in 10.0 mi NNE 11.5 mph - N/A   Mostly Cloudy
2:40 PM 87.8 °F 28.4 °F 12% 29.85 in 10.0 mi NNW 10.4 mph - N/A   Mostly Cloudy
2:50 PM 92 °F 41 °F 9% 29.85 in 19 mi NNE 8.9 mph - -   Partly Cloudy
3:40 PM 89.6 °F 30.2 °F 12% 29.82 in 10.0 mi North 18.4 mph - N/A   Mostly Cloudy
4:40 PM 86.0 °F 35.6 °F 17% 29.82 in 10.0 mi North 11.5 mph - N/A   Mostly Cloudy
5:40 PM 86.0 °F 32.0 °F 14% 29.82 in 10.0 mi North 10.4 mph - N/A   Scattered Clouds
6:45 PM 82.4 °F 44.6 °F 26% 29.83 in 10.0 mi NNW 8.1 mph - N/A   Scattered Clouds
7:40 PM 80.6 °F 46.4 °F 30% 29.86 in 10.0 mi North 9.2 mph - N/A   Mostly Cloudy
8:40 PM 78.8 °F 46.4 °F 32% 29.88 in 10.0 mi North 6.9 mph - N/A   Mostly Cloudy
9:00 PM 80 °F 53 °F 29% 29.84 in 2 mi NNE 6.7 mph - -   Partly Cloudy
9:41 PM 77.0 °F 42.8 °F 29% 29.90 in 10.0 mi ENE 6.9 mph - N/A   Mostly Cloudy
10:40 PM 77.0 °F 46.4 °F 34% 29.92 in 10.0 mi NE 4.6 mph - N/A   Scattered Clouds
11:50 PM 76 °F 57 °F 41% 29.92 in 2 mi NNE 4.5 mph - -   Mostly Cloudy